Time,TemperatureF,DewpointF,PressureIn,WindDirection,WindDirectionDegrees,WindSpeedMPH,WindSpeedGustMPH,Humidity,HourlyPrecipIn,Conditions,Clouds,dailyrainin,SoftwareType,DateUTC
2013-01-11 00:03:00,36.0,31.0,-100.00,ENE,75,12.0,17.0,82,1.69,,,-99.99,,2013-01-11 05:03:00,
2013-01-11 00:13:00,35.0,31.0,-100.00,ENE,60,9.0,15.0,85,0.00,,,-99.99,,2013-01-11 05:13:00,
2013-01-11 00:22:00,35.0,32.0,-100.00,ENE,65,9.0,16.0,87,0.00,,,-99.99,,2013-01-11 05:22:00,
2013-01-11 00:33:00,35.0,32.0,-100.00,ENE,65,9.0,14.0,87,0.00,,,-99.99,,2013-01-11 05:33:00,
2013-01-11 00:43:00,35.0,32.0,-100.00,ENE,60,9.0,14.0,87,0.00,,,-99.99,,2013-01-11 05:43:00,
2013-01-11 00:52:00,35.0,32.0,-100.00,ENE,75,7.0,13.0,87,0.00,,,-99.99,,2013-01-11 05:52:00,
2013-01-11 01:03:00,35.0,32.0,-100.00,ENE,60,7.0,12.0,86,1.69,,,-99.99,,2013-01-11 06:03:00,
2013-01-11 01:12:00,35.0,32.0,-100.00,ENE,70,6.0,11.0,86,0.00,,,-99.99,,2013-01-11 06:12:00,
2013-01-11 01:22:00,36.0,32.0,-100.00,ENE,65,7.0,12.0,85,0.00,,,-99.99,,2013-01-11 06:22:00,
2013-01-11 01:32:00,36.0,32.0,-100.00,ENE,65,7.0,11.0,84,0.00,,,-99.99,,2013-01-11 06:32:00,
2013-01-11 01:42:00,36.0,32.0,-100.00,ENE,70,5.0,9.0,84,0.00,,,-99.99,,2013-01-11 06:42:00,
2013-01-11 01:52:00,36.0,32.0,-100.00,ENE,65,4.0,7.0,84,1.10,,,-99.99,,2013-01-11 06:52:00,
2013-01-11 02:02:00,36.0,32.0,-100.00,NE,50,4.0,9.0,85,3.94,,,-99.99,,2013-01-11 07:02:00,
2013-01-11 02:12:00,36.0,32.0,-100.00,ENE,75,6.0,7.0,86,5.67,,,-99.99,,2013-01-11 07:12:00,
2013-01-11 02:22:00,36.0,33.0,-100.00,East,80,4.0,8.0,89,23.78,,,-99.99,,2013-01-11 07:22:00,
2013-01-11 02:32:00,35.0,33.0,-100.00,ENE,65,9.0,11.0,93,22.09,,,-99.99,,2013-01-11 07:32:00,
2013-01-11 02:42:00,35.0,33.0,-100.00,ENE,60,12.0,15.0,95,5.67,,,-99.99,,2013-01-11 07:42:00,
2013-01-11 02:52:00,35.0,34.0,-100.00,ENE,70,6.0,14.0,96,4.53,,,-99.99,,2013-01-11 07:52:00,
2013-01-11 03:02:00,35.0,34.0,-100.00,ENE,65,7.0,11.0,96,0.00,,,-99.99,,2013-01-11 08:02:00,
2013-01-11 03:12:00,35.0,34.0,-100.00,NE,50,5.0,12.0,95,3.39,,,-99.99,,2013-01-11 08:12:00,
2013-01-11 03:22:00,35.0,34.0,-100.00,ENE,70,5.0,9.0,94,1.69,,,-99.99,,2013-01-11 08:22:00,
2013-01-11 03:32:00,35.0,33.0,-100.00,NE,50,5.0,9.0,93,0.00,,,-99.99,,2013-01-11 08:32:00,
2013-01-11 03:42:00,35.0,33.0,-100.00,NE,50,6.0,9.0,92,2.83,,,-99.99,,2013-01-11 08:42:00,
2013-01-11 03:52:00,35.0,33.0,-100.00,NE,40,4.0,9.0,91,0.00,,,-99.99,,2013-01-11 08:52:00,
2013-01-11 04:02:00,35.0,33.0,-100.00,NE,35,5.0,7.0,91,0.00,,,-99.99,,2013-01-11 09:02:00,
2013-01-11 04:12:00,36.0,33.0,-100.00,NE,50,6.0,9.0,89,0.00,,,-99.99,,2013-01-11 09:12:00,
2013-01-11 04:23:00,35.0,33.0,-100.00,NNE,25,4.0,9.0,90,0.00,,,-99.99,,2013-01-11 09:23:00,
2013-01-11 04:32:00,35.0,33.0,-100.00,NNE,20,6.0,8.0,90,0.00,,,-99.99,,2013-01-11 09:32:00,
2013-01-11 04:42:00,35.0,33.0,-100.00,NNE,20,6.0,9.0,91,0.00,,,-99.99,,2013-01-11 09:42:00,
2013-01-11 04:52:00,36.0,33.0,-100.00,North,10,4.0,6.0,91,0.00,,,-99.99,,2013-01-11 09:52:00,
2013-01-11 05:02:00,35.0,33.0,-100.00,NNE,25,6.0,9.0,91,0.00,,,-99.99,,2013-01-11 10:02:00,
2013-01-11 05:12:00,35.0,33.0,-100.00,NE,35,8.0,10.0,92,0.00,,,-99.99,,2013-01-11 10:12:00,
2013-01-11 05:22:00,35.0,32.0,-100.00,NNE,30,9.0,11.0,91,0.00,,,-99.99,,2013-01-11 10:22:00,
2013-01-11 05:32:00,35.0,32.0,-100.00,NE,35,4.0,11.0,90,0.00,,,-99.99,,2013-01-11 10:32:00,
2013-01-11 05:42:00,35.0,32.0,-100.00,NNE,30,7.0,11.0,90,2.24,,,-99.99,,2013-01-11 10:42:00,
2013-01-11 05:52:00,36.0,33.0,-100.00,NE,45,5.0,9.0,91,2.83,,,-99.99,,2013-01-11 10:52:00,
2013-01-11 06:03:00,35.0,33.0,-100.00,NNE,15,6.0,8.0,90,2.24,,,-99.99,,2013-01-11 11:03:00,
2013-01-11 06:12:00,35.0,33.0,-100.00,NNE,25,4.0,9.0,91,3.39,,,-99.99,,2013-01-11 11:12:00,
2013-01-11 06:22:00,35.0,33.0,-100.00,NNE,30,4.0,7.0,91,2.83,,,-99.99,,2013-01-11 11:22:00,
2013-01-11 06:33:00,35.0,33.0,-100.00,NNE,25,3.0,7.0,93,4.53,,,-99.99,,2013-01-11 11:33:00,
2013-01-11 06:42:00,35.0,34.0,-100.00,NNE,20,4.0,7.0,94,2.83,,,-99.99,,2013-01-11 11:42:00,
2013-01-11 06:53:00,36.0,34.0,-100.00,NNE,20,2.0,6.0,95,0.00,,,-99.99,,2013-01-11 11:53:00,
2013-01-11 07:03:00,37.0,36.0,-100.00,SE,135,2.0,5.0,95,3.94,,,-99.99,,2013-01-11 12:03:00,
2013-01-11 07:12:00,38.0,37.0,-100.00,South,180,1.0,7.0,96,3.94,,,-99.99,,2013-01-11 12:12:00,
2013-01-11 07:22:00,39.0,38.0,-100.00,SW,220,5.0,6.0,96,8.50,,,-99.99,,2013-01-11 12:22:00,
2013-01-11 07:33:00,42.0,41.0,-100.00,South,175,7.0,14.0,96,16.42,,,-99.99,,2013-01-11 12:33:00,
2013-01-11 07:42:00,44.0,43.0,-100.00,SSE,165,8.0,18.0,97,15.28,,,-99.99,,2013-01-11 12:42:00,
2013-01-11 07:52:00,45.0,45.0,-100.00,South,190,12.0,18.0,98,23.78,,,-99.99,,2013-01-11 12:52:00,
2013-01-11 08:03:00,46.0,46.0,-100.00,SSW,200,11.0,16.0,98,18.70,,,-99.99,,2013-01-11 13:03:00,
2013-01-11 08:13:00,46.0,45.0,-100.00,South,190,11.0,17.0,98,10.75,,,-99.99,,2013-01-11 13:13:00,
2013-01-11 08:22:00,46.0,45.0,-100.00,SW,215,12.0,16.0,98,4.53,,,-99.99,,2013-01-11 13:22:00,
2013-01-11 08:33:00,46.0,46.0,-100.00,South,170,11.0,19.0,98,2.24,,,-99.99,,2013-01-11 13:33:00,
2013-01-11 08:42:00,47.0,46.0,-100.00,South,170,12.0,21.0,98,0.00,,,-99.99,,2013-01-11 13:42:00,
2013-01-11 08:52:00,47.0,46.0,-100.00,South,175,13.0,24.0,98,0.00,,,-99.99,,2013-01-11 13:52:00,
2013-01-11 09:03:00,47.0,46.0,-100.00,South,175,16.0,22.0,97,0.00,,,-99.99,,2013-01-11 14:03:00,
2013-01-11 09:12:00,47.0,46.0,-100.00,South,170,12.0,17.0,96,2.24,,,-99.99,,2013-01-11 14:12:00,
2013-01-11 09:23:00,47.0,46.0,-100.00,SSE,165,13.0,21.0,95,0.00,,,-99.99,,2013-01-11 14:23:00,
2013-01-11 09:33:00,48.0,46.0,-100.00,SSE,150,12.0,21.0,95,2.24,,,-99.99,,2013-01-11 14:33:00,
2013-01-11 09:43:00,49.0,47.0,-100.00,SE,140,14.0,29.0,94,0.00,,,-99.99,,2013-01-11 14:43:00,
2013-01-11 09:53:00,50.0,48.0,-100.00,SE,145,22.0,30.0,94,0.00,,,-99.99,,2013-01-11 14:53:00,
2013-01-11 10:03:00,51.0,48.0,-100.00,SSE,150,19.0,32.0,92,0.00,,,-99.99,,2013-01-11 15:03:00,
2013-01-11 10:13:00,51.0,48.0,-100.00,SSE,155,17.0,31.0,90,0.00,,,-99.99,,2013-01-11 15:13:00,
2013-01-11 10:23:00,50.0,48.0,-100.00,SSE,160,16.0,24.0,91,0.00,,,-99.99,,2013-01-11 15:23:00,
2013-01-11 10:33:00,50.0,48.0,-100.00,SSE,160,16.0,24.0,91,0.00,,,-99.99,,2013-01-11 15:33:00,
2013-01-11 10:43:00,50.0,48.0,-100.00,SSE,165,17.0,26.0,92,0.00,,,-99.99,,2013-01-11 15:43:00,
2013-01-11 10:52:00,51.0,48.0,-100.00,South,175,16.0,24.0,91,0.00,,,-99.99,,2013-01-11 15:52:00,
2013-01-11 11:03:00,52.0,49.0,-100.00,South,175,16.0,29.0,89,0.00,,,-99.99,,2013-01-11 16:03:00,
2013-01-11 11:13:00,53.0,49.0,-100.00,South,175,16.0,30.0,88,0.00,,,-99.99,,2013-01-11 16:13:00,
2013-01-11 11:22:00,53.0,49.0,-100.00,South,185,21.0,28.0,87,0.00,,,-99.99,,2013-01-11 16:22:00,
2013-01-11 11:33:00,53.0,49.0,-100.00,South,175,17.0,29.0,87,0.00,,,-99.99,,2013-01-11 16:33:00,
2013-01-11 11:42:00,53.0,49.0,-100.00,South,180,15.0,30.0,87,0.00,,,-99.99,,2013-01-11 16:42:00,
2013-01-11 11:53:00,53.0,49.0,-100.00,South,190,12.0,23.0,87,0.00,,,-99.99,,2013-01-11 16:53:00,
2013-01-11 12:03:00,53.0,49.0,-100.00,SSW,195,18.0,25.0,87,0.00,,,-99.99,,2013-01-11 17:03:00,
2013-01-11 12:12:00,53.0,49.0,-100.00,South,190,14.0,29.0,87,0.00,,,-99.99,,2013-01-11 17:12:00,
2013-01-11 12:22:00,53.0,49.0,-100.00,SSW,195,17.0,27.0,87,0.00,,,-99.99,,2013-01-11 17:22:00,
2013-01-11 12:33:00,53.0,50.0,-100.00,SSW,195,19.0,25.0,87,0.00,,,-99.99,,2013-01-11 17:33:00,
2013-01-11 12:43:00,53.0,50.0,-100.00,SSW,200,14.0,25.0,88,2.83,,,-99.99,,2013-01-11 17:43:00,
2013-01-11 12:53:00,53.0,50.0,-100.00,SSW,200,14.0,24.0,90,5.08,,,-99.99,,2013-01-11 17:53:00,
2013-01-11 13:04:00,53.0,51.0,-100.00,SSW,200,12.0,21.0,91,1.69,,,-99.99,,2013-01-11 18:04:00,
2013-01-11 13:13:00,54.0,51.0,-100.00,SSW,210,14.0,21.0,90,0.00,,,-99.99,,2013-01-11 18:13:00,
2013-01-11 13:23:00,54.0,51.0,-100.00,SSW,205,19.0,24.0,90,0.00,,,-99.99,,2013-01-11 18:23:00,
2013-01-11 13:33:00,54.0,51.0,-100.00,SSW,210,17.0,25.0,89,0.00,,,-99.99,,2013-01-11 18:33:00,
2013-01-11 13:43:00,55.0,51.0,-100.00,SSW,205,17.0,24.0,88,0.00,,,-99.99,,2013-01-11 18:43:00,
2013-01-11 13:53:00,55.0,51.0,-100.00,SSW,200,17.0,24.0,87,0.00,,,-99.99,,2013-01-11 18:53:00,
2013-01-11 14:03:00,56.0,51.0,-100.00,SSW,205,23.0,30.0,84,0.00,,,-99.99,,2013-01-11 19:03:00,
2013-01-11 14:12:00,56.0,51.0,-100.00,SSW,210,17.0,27.0,84,0.00,,,-99.99,,2013-01-11 19:12:00,
2013-01-11 14:22:00,56.0,51.0,-100.00,SSW,210,19.0,29.0,83,0.00,,,-99.99,,2013-01-11 19:22:00,
2013-01-11 14:33:00,57.0,51.0,-100.00,SSW,210,21.0,27.0,80,0.00,,,-99.99,,2013-01-11 19:33:00,
2013-01-11 14:43:00,57.0,50.0,-100.00,SW,220,20.0,28.0,78,0.00,,,-99.99,,2013-01-11 19:43:00,
2013-01-11 14:53:00,57.0,51.0,-100.00,SW,215,16.0,24.0,78,0.00,,,-99.99,,2013-01-11 19:53:00,
2013-01-11 15:03:00,58.0,50.0,-100.00,SW,215,18.0,26.0,75,0.00,,,-99.99,,2013-01-11 20:03:00,
2013-01-11 15:12:00,58.0,50.0,-100.00,SW,220,24.0,30.0,75,0.00,,,-99.99,,2013-01-11 20:12:00,
2013-01-11 15:22:00,58.0,50.0,-100.00,SSW,210,14.0,27.0,75,0.00,,,-99.99,,2013-01-11 20:22:00,
2013-01-11 15:33:00,59.0,50.0,-100.00,SW,215,19.0,25.0,72,0.00,,,-99.99,,2013-01-11 20:33:00,
2013-01-11 15:43:00,58.0,49.0,-100.00,SW,220,21.0,28.0,70,0.00,,,-99.99,,2013-01-11 20:43:00,
2013-01-11 15:52:00,58.0,48.0,-100.00,SW,220,24.0,32.0,69,0.00,,,-99.99,,2013-01-11 20:52:00,
2013-01-11 16:03:00,58.0,48.0,-100.00,SSW,210,19.0,32.0,68,0.00,,,-99.99,,2013-01-11 21:03:00,
2013-01-11 16:12:00,58.0,47.0,-100.00,SSW,210,19.0,27.0,67,0.00,,,-99.99,,2013-01-11 21:12:00,
2013-01-11 16:23:00,58.0,48.0,-100.00,SSW,200,15.0,25.0,69,0.00,,,-99.99,,2013-01-11 21:23:00,
2013-01-11 16:33:00,58.0,48.0,-100.00,SW,215,19.0,25.0,69,0.00,,,-99.99,,2013-01-11 21:33:00,
2013-01-11 16:42:00,58.0,48.0,-100.00,SSW,210,18.0,24.0,70,0.00,,,-99.99,,2013-01-11 21:42:00,
2013-01-11 16:52:00,58.0,48.0,-100.00,SSW,210,17.0,22.0,70,0.00,,,-99.99,,2013-01-11 21:52:00,
2013-01-11 17:03:00,57.0,48.0,-100.00,SSW,210,11.0,21.0,71,0.00,,,-99.99,,2013-01-11 22:03:00,
2013-01-11 17:12:00,57.0,48.0,-100.00,SW,215,15.0,19.0,71,0.00,,,-99.99,,2013-01-11 22:12:00,
2013-01-11 17:22:00,57.0,48.0,-100.00,SSW,210,16.0,22.0,71,0.00,,,-99.99,,2013-01-11 22:22:00,
2013-01-11 17:33:00,57.0,48.0,-100.00,SSW,210,12.0,19.0,71,0.00,,,-99.99,,2013-01-11 22:33:00,
2013-01-11 17:42:00,56.0,48.0,-100.00,SSW,210,12.0,19.0,72,0.00,,,-99.99,,2013-01-11 22:42:00,
2013-01-11 17:52:00,56.0,48.0,-100.00,SSW,205,11.0,16.0,73,0.00,,,-99.99,,2013-01-11 22:52:00,
2013-01-11 18:02:00,56.0,48.0,-100.00,SSW,205,11.0,14.0,74,0.00,,,-99.99,,2013-01-11 23:02:00,
2013-01-11 18:13:00,56.0,48.0,-100.00,SSW,200,11.0,14.0,75,0.00,,,-99.99,,2013-01-11 23:13:00,
2013-01-11 18:22:00,55.0,47.0,-100.00,SSW,205,14.0,19.0,73,0.00,,,-99.99,,2013-01-11 23:22:00,
2013-01-11 18:32:00,55.0,47.0,-100.00,SSW,200,16.0,21.0,73,0.00,,,-99.99,,2013-01-11 23:32:00,
2013-01-11 18:43:00,55.0,47.0,-100.00,SSW,205,14.0,21.0,74,0.00,,,-99.99,,2013-01-11 23:43:00,
2013-01-11 18:53:00,55.0,47.0,-100.00,SSW,195,12.0,17.0,74,0.00,,,-99.99,,2013-01-11 23:53:00,
2013-01-11 19:03:00,55.0,47.0,-100.00,SSW,195,13.0,18.0,76,0.00,,,-99.99,,2013-01-12 00:03:00,
2013-01-11 19:12:00,54.0,47.0,-100.00,South,190,11.0,16.0,78,0.00,,,-99.99,,2013-01-12 00:12:00,
2013-01-11 19:23:00,53.0,47.0,-100.00,SSW,195,11.0,17.0,79,0.00,,,-99.99,,2013-01-12 00:23:00,
2013-01-11 19:33:00,53.0,47.0,-100.00,SSW,195,12.0,16.0,79,0.00,,,-99.99,,2013-01-12 00:33:00,
2013-01-11 19:43:00,53.0,46.0,-100.00,South,185,12.0,17.0,79,0.00,,,-99.99,,2013-01-12 00:43:00,
2013-01-11 19:52:00,52.0,46.0,-100.00,South,190,11.0,17.0,80,0.00,,,-99.99,,2013-01-12 00:52:00,
2013-01-11 20:02:00,52.0,46.0,-100.00,South,185,11.0,15.0,81,0.00,,,-99.99,,2013-01-12 01:02:00,
2013-01-11 20:12:00,52.0,46.0,-100.00,South,185,9.0,15.0,81,0.00,,,-99.99,,2013-01-12 01:12:00,
2013-01-11 20:22:00,52.0,46.0,-100.00,South,180,9.0,14.0,82,0.00,,,-99.99,,2013-01-12 01:22:00,
2013-01-11 20:33:00,51.0,46.0,-100.00,South,170,9.0,12.0,83,0.00,,,-99.99,,2013-01-12 01:33:00,
2013-01-11 20:43:00,51.0,47.0,-100.00,South,185,10.0,12.0,84,0.00,,,-99.99,,2013-01-12 01:43:00,
2013-01-11 20:52:00,51.0,47.0,-100.00,South,170,8.0,12.0,85,0.00,,,-99.99,,2013-01-12 01:52:00,
2013-01-11 21:02:00,51.0,47.0,-100.00,South,170,10.0,13.0,86,0.00,,,-99.99,,2013-01-12 02:02:00,
2013-01-11 21:12:00,50.0,47.0,-100.00,South,170,7.0,15.0,87,0.00,,,-99.99,,2013-01-12 02:12:00,
2013-01-11 21:22:00,50.0,47.0,-100.00,SSE,165,9.0,14.0,88,0.00,,,-99.99,,2013-01-12 02:22:00,
2013-01-11 21:33:00,51.0,47.0,-100.00,South,175,9.0,12.0,87,0.00,,,-99.99,,2013-01-12 02:33:00,
2013-01-11 21:43:00,51.0,47.0,-100.00,South,175,8.0,16.0,86,0.00,,,-99.99,,2013-01-12 02:43:00,
2013-01-11 21:53:00,51.0,47.0,-100.00,South,170,9.0,13.0,86,0.00,,,-99.99,,2013-01-12 02:53:00,
2013-01-11 22:03:00,51.0,47.0,-100.00,South,180,10.0,15.0,85,0.00,,,-99.99,,2013-01-12 03:03:00,
2013-01-11 22:12:00,51.0,46.0,-100.00,South,170,9.0,16.0,85,0.00,,,-99.99,,2013-01-12 03:12:00,
2013-01-11 22:22:00,51.0,46.0,-100.00,South,175,9.0,14.0,85,0.00,,,-99.99,,2013-01-12 03:22:00,
2013-01-11 22:33:00,51.0,46.0,-100.00,South,175,9.0,12.0,85,0.00,,,-99.99,,2013-01-12 03:33:00,
2013-01-11 22:43:00,51.0,46.0,-100.00,South,175,9.0,13.0,85,0.00,,,-99.99,,2013-01-12 03:43:00,
2013-01-11 22:52:00,50.0,46.0,-100.00,South,170,8.0,12.0,86,0.00,,,-99.99,,2013-01-12 03:52:00,
2013-01-11 23:02:00,50.0,46.0,-100.00,South,170,7.0,12.0,86,0.00,,,-99.99,,2013-01-12 04:02:00,
2013-01-11 23:12:00,49.0,46.0,-100.00,South,170,9.0,14.0,87,0.00,,,-99.99,,2013-01-12 04:12:00,
2013-01-11 23:22:00,49.0,46.0,-100.00,South,170,7.0,11.0,87,0.00,,,-99.99,,2013-01-12 04:22:00,
2013-01-11 23:32:00,49.0,46.0,-100.00,South,180,9.0,12.0,88,0.00,,,-99.99,,2013-01-12 04:32:00,
2013-01-11 23:42:00,49.0,46.0,-100.00,South,175,11.0,15.0,88,0.00,,,-99.99,,2013-01-12 04:42:00,
2013-01-11 23:52:00,49.0,46.0,-100.00,South,180,9.0,13.0,87,0.00,,,-99.99,,2013-01-12 04:52:00,